Miscellaneous Local Product
Issued by NWS Hastings, NE

Home | Current Version | Previous Version | Graphics & Text | Print | Product List | Glossary On
Versions: 1 2 3 4 5 6 7 8 9 10 11 12 13 14 15 16 17 18 19 20 21 22 23 24 25 26 27 28 29 30 31 32 33 34 35 36 37 38 39 40 41 42 43 44 45 46 47 48 49 50
000
AXUS43 KGID 210910
MISGRI

GID CWA HOURLY WEATHER ROUNDUP
NATIONAL WEATHER SERVICE HASTINGS NE
400 AM CDT SUN SEP 21 2014

NOTE: "FAIR" INDICATES FEW OR NO CLOUDS BELOW 12,000 FEET WITH NO
SIGNIFICANT WEATHER AND/OR OBSTRUCTIONS TO VISIBILITY.

...SOUTH CENTRAL NEBRASKA...

CITY           SKY/WX    TMP DP  RH WIND       PRES   REMARKS
GRAND ISLAND   CLEAR     52  46  80 W6        30.18R
HASTINGS       CLEAR     54  46  74 NW8       30.18R
KEARNEY        CLEAR     54  45  71 NW9       30.20R
ORD            CLEAR     48  42  80 NW3       30.19R
YORK           CLEAR     50  48  93 NW6       30.16R
AURORA         CLEAR     51  47  87 W5        30.17R
LEXINGTON      CLEAR     48  45  90 NW7       30.22S
HOLDREGE       CLEAR     54  45  71 CALM      30.20S
HEBRON         CLEAR     55  50  82 CALM      30.15S

...NEBRASKA PANHANDLE...

CITY           SKY/WX    TMP DP  RH WIND       PRES   REMARKS
CHADRON        CLEAR     40  38  93 SW5       30.32S
ALLIANCE       PTCLDY    45  40  82 CALM      30.33S
SCOTTSBLUFF    MOCLDY    52  43  71 CALM      30.34R
SIDNEY         CLOUDY    58  44  60 N5        30.35R

...WESTERN AND NORTH CENTRAL NEBRASKA...

CITY           SKY/WX    TMP DP  RH WIND       PRES   REMARKS
VALENTINE      CLEAR     46  39  76 NW8       30.26R
AINSWORTH      CLEAR     46  39  77 W7        30.24R
ONEILL         CLEAR     50  43  78 W7        30.19S
BROKEN BOW     CLEAR     53  41  63 N9        30.22R
IMPERIAL       MOCLDY    55  45  68 NW5       30.28S
NORTH PLATTE   CLEAR     45  42  89 NW3       30.26R
MCCOOK         CLEAR     52  46  80 NW7       30.24S

...EASTERN NEBRASKA...

CITY           SKY/WX    TMP DP  RH WIND       PRES   REMARKS
NORFOLK        CLEAR     52  46  80 W8        30.14S
SO SIOUX CITY  CLEAR     54  49  83 W6        30.08S
TEKAMAH        CLEAR     56  50  80 W9        30.09R
COLUMBUS       CLEAR     48  45  87 W5        30.15R
ALBION         CLEAR     51  43  74 NW5       30.17R
OMAHA EPPLEY   CLEAR     57  50  77 NW6       30.09R
OFFUTT AFB     CLEAR     55  55  99 NW7       30.09R
MILLARD        CLEAR     58  53  83 NW3       30.10R
LINCOLN        CLEAR     54  49  83 CALM      30.13R
NEBRASKA CITY    N/A     57  49  76 W6        30.10S
BEATRICE       CLEAR     52  51  94 W3        30.13R
FALLS CITY     CLEAR     58  55  90 NW6       30.09R

...NORTHERN KANSAS...

CITY           SKY/WX    TMP DP  RH WIND       PRES   REMARKS
GOODLAND       PTCLDY    53  47  79 N3        30.28S
HILL CITY      PTCLDY    56  48  74 N7        30.21R
NORTON         SUNNY     54  43  66 NW7       30.21
SMITH CENTER   CLEAR     55  46  71 N8        30.18R
BELOIT         CLEAR     61  52  72 N8        30.13R
HAYS           MOCLDY    64  46  52 NE10      30.18R
RUSSELL        MOCLDY    62  52  69 NE9       30.16R
CONCORDIA      CLEAR     62  52  69 N7        30.13R
SALINA         CLEAR     68  54  60 NE8       30.13R
TOPEKA         CLEAR     65  59  81 CALM      30.09R



USA.gov is the U.S. government's official web portal to all federal, state and local government web resources and services.